IRIDIUM 175 (43928 NORAD) Tracking and Keplerian Element Data

This shows tracking and keplerian element data for the satellite.

Feedback or suggestion? Click here.




ElementValue
Catalog43928
NameIRIDIUM 175
Epoch Orbit431
Epoch Day40.97215682
Epoch Year2019
RAAN35.2936
Inclination86.6076
Eccentricity0.0002612
Argument of Perigee117.4537
Mean Anonmoly242.6946
Mean Motion14.72253989
Decay Rate7.3E-07
L11 43928U 19002G 19040.97215682 .00000073 00000-0 76478-5 0 9999
L22 43928 86.6076 35.2936 0002612 117.4537 242.6946 14.72253989 4319

Live tracking and technical data element details for IRIDIUM 175 (NORAD 43928). IRIDIUM 175 can be tracked NOW for your location showing map with azimuth and elevation plus other details from your city location.

Track the satellite on the map from your city or location and see movement details for azimuth, elevation, latitude, longitude, range, height, and movement on the map or in text.







IsCatalogInMostPopularTable: catalog: 43928, numindb: 122
Update: records affected: 1



GetName: 43928 IRIDIUM 175

Hit Count: updated at: Mon, 22 Jul 2019 04:22:29 GMT